Regional Weather Roundup
Issued by NWS

Home | Current Version | Previous Version | Graphics & Text | Print | Product List | Glossary On
Versions: 1 2 3 4 5 6 7 8 9 10 11 12 13 14 15 16 17 18 19 20 21 22 23 24 25 26 27 28 29 30 31 32 33 34 35 36 37 38 39 40 41 42 43 44 45 46 47 48 49 50
944
ASUS45 KTFX 261910
RWRMT
MONTANA REGIONAL WEATHER ROUNDUP
NATIONAL WEATHER SERVICE GREAT FALLS MT
100 PM MDT SUN MAR 26 2017

NOTE: "FAIR" INDICATES FEW OR NO CLOUDS BELOW 12000 FEET WITH NO
SIGNIFICANT WEATHER AND/OR OBSTRUCTIONS TO VISIBILITY.

MTZ001>007-043-262000-
WEST OF THE DIVIDE

CITY           SKY/WX    TMP DP  RH WIND       PRES   REMARKS
KALISPELL      SUNNY     48  25  40 S12       29.92F
MISSOULA       SUNNY     49  32  52 SE8       29.92F
BUTTE          SUNNY     46  16  30 VRB5      29.90F
MULLAN PASS    PTSUNNY   33  29  85 VRB5      29.86F
ANACONDA         N/A     48  12  23 SW8       29.89F
DEER LODGE       N/A     48  18  29 S9        29.91F
EUREKA           N/A     48  23  37 S3        29.90F
HAMILTON         N/A     50  27  40 CALM      29.90F
PLAINS           N/A     49  28  44 CALM      29.93
RONAN            N/A     50  25  38 CALM      29.97F
THOMPSON FALLS   N/A     49  28  44 NE14      29.95
$$

MTZ008-052>055-262000-
SOUTHWEST MONTANA

CITY           SKY/WX    TMP DP  RH WIND       PRES   REMARKS
BOZEMAN        SUNNY     49  26  41 VRB3      29.91F
DILLON         SUNNY     48  17  29 SW10      29.90F
W YELLOWSTONE  PTSUNNY   36  25  64 S12G20    29.98F WCI  27
ENNIS          SUNNY     48  23  37 S21G31    29.95F
$$

MTZ009-010-012-014-046-048-049-054-262000-
EAST SLOPES AND CENTRAL MONTANA

CITY           SKY/WX    TMP DP  RH WIND       PRES   REMARKS
CUT BANK       SUNNY     47  14  26 SW9       29.87F
GREAT FALLS    SUNNY     51  17  26 SW17G24   29.88F
MALMSTROM AFB  SUNNY     52  19  28 W17G23    29.89F
HELENA         SUNNY     52  25  35 VRB6      29.89F
AUGUSTA          N/A     46   6  19 SW5       29.88F
BOWMANS CRNR     N/A     47  19  33 S16G24    29.86F
CHOTEAU          N/A     46  10  23 CALM      29.90F
CONRAD           N/A     47  22  37 S1        29.92F
FAIRFIELD        N/A     47   9  21 SW5       29.88F
POWER            N/A     48  11  22 SW7G21    29.87F
RAYNESFORD       N/A     50  13  22 W10G25    29.88F
$$

MTZ011-013-016-021-045-047-050-051-262000-
NORTH CENTRAL MONTANA

CITY           SKY/WX    TMP DP  RH WIND       PRES   REMARKS
HAVRE          MOSUNNY   50  20  30 SW13      29.91F
LEWISTOWN      MOSUNNY   51  18  27 SW7       29.89F
N BAR RANCH    CLOUDY    48  21  34 SE6G13    29.92F
CHINOOK          N/A     50  18  27 W7        29.92F
DENTON           N/A     49  17  27 NW10G18   29.87F
FORT BENTON      N/A    N/A N/A N/A MISG      29.92F
GEYSER           N/A     49  15  24 W9G25     29.88F
GRASS RANGE    PTSUNNY   50  25  38 E12       29.87F
STANFORD         N/A     49  11  21 CALM      29.88F
WINIFRED         N/A     51  20  29 W14G20    29.89F
$$

MTZ017>020-022>027-061-062-262000-
NORTHEAST MONTANA

CITY           SKY/WX    TMP DP  RH WIND       PRES   REMARKS
GLASGOW        MOSUNNY   54  22  28 NW7       29.91F
JORDAN           N/A     53  22  29 VRB5      29.92F
SIDNEY         MOSUNNY   60  30  32 W8        29.88F
WOLF POINT     MOSUNNY   60  24  25 W8G16     29.90F
MALTA          SUNNY     52  21  30 W12       29.91F
PLENTYWOOD       N/A     55  27  33 W7        29.88S
POPLAR           N/A     57  25  28 W10G17    29.89F
SCOBEY           N/A     56  20  24 W20       29.88
$$

MTZ028>42-056>058-262000-
SOUTHCENTRAL AND SOUTHEAST MONTANA

CITY           SKY/WX    TMP DP  RH WIND       PRES   REMARKS
BAKER          MOSUNNY   54  34  46 W6        29.93F
BILLINGS       MOSUNNY   51  25  36 VRB5      29.93F
LIVINGSTON     PTSUNNY   54  24  31 SW22      29.89F
MILES CITY     SUNNY     56  34  43 VRB5      29.92F
BIG TIMBER     SUNNY     50  27  40 VRB5G13   29.93F
EKALAKA          N/A     53  34  48 SW5       29.92
FORSYTH          N/A     54  30  40 CALM      29.92F
HARLOWTON      PTSUNNY   48  20  32 CALM      29.90F
LAUREL           N/A     53  27  37 SE5       29.93F
ROUNDUP          N/A     54  21  27 SW7       29.84F
$$

REGIONAL REPORTS...DAKOTAS

CITY           SKY/WX    TMP DP  RH WIND       PRES   REMARKS
WILLISTON      SUNNY     62  32  32 SW8       29.87F
MINOT          SUNNY     58  42  55 NE8       29.89F
DICKINSON      MOSUNNY   58  31  35 VRB7      29.89F
BEACH            N/A    N/A N/A N/A MISG        N/A
TIOGA            N/A     57  28  33 CALM      29.89F
WATFORD CITY     N/A     61  30  31 VRB5G12   29.87F
BISMARCK       SUNNY     60  36  40 CALM      29.93S
GRAND FORKS    PTSUNNY   44  39  82 S6        29.94F
FARGO          CLOUDY    43  37  79 CALM      29.96R
BUFFALO SD       N/A     50  40  68 W7        29.87S
RAPID CITY     CLOUDY    42  39  89 N17       29.93S
$$

REGIONAL REPORTS...WYOMING/IDAHO/WASHINGTON

CITY           SKY/WX    TMP DP  RH WIND       PRES   REMARKS
GILLETTE       PTSUNNY   49  34  56 N9        29.94F
SHERIDAN       SUNNY     54  30  40 VRB6      29.94F
BUFFALO WY     MOSUNNY   50  27  40 N8        29.95F
CODY           MOSUNNY   49  20  31 VRB5      29.94F
YELLOWSTONE LA   N/A     37  17  44 CALM      29.98F
IDAHO FALLS    MOSUNNY   48  27  44 SW15      30.00F
SALMON         MOSUNNY   52  21  30 SW10      29.90F
BOISE          CLOUDY    58  29  33 S21G31    29.90F
SPOKANE        CLOUDY    47  32  56 E9        29.86F
$$

REGIONAL REPORTS...ALBERTA

CITY           SKY/WX    TMP DP  RH WIND       PRES   REMARKS
EDMONTON       SUNNY     45  32  61 SE2       29.83F
CALGARY        MOSUNNY   46  10  23 VRB3      29.82F
LETHBRIDGE     MOSUNNY   48  16  27 W12G17    29.85F
MEDICINE HAT   MOSUNNY   54  19  26 W13       29.85F
WATERTON GATE    N/A     45  16  31 SW14G23     N/A
CARDSTON         N/A     48  10  21 W6          N/A
MILK RIVER       N/A     50  14  23 W6          N/A
ONEFOUR          N/A     48  18  29 W10G18      N/A
$$

REGIONAL REPORTS...SASKATCHEWAN

CITY           SKY/WX    TMP DP  RH WIND       PRES   REMARKS
SWIFT CURRENT  MOSUNNY   50  21  32 W16G24    29.83R
REGINA         PTSUNNY   50  32  50 S6        29.86F
SASKATOON      CLOUDY    34  30  86 E6        29.91S WCI  29
VAL MARIE        N/A     52  21  30 W15G22      N/A
ASSINIBOIA       N/A     41  30  65 E2          N/A
$$




USA.gov is the U.S. government's official web portal to all federal, state and local government web resources and services.